Location: Carrer del Canonge
(41.4901°N, 2.2931°E)
Time: 03:56:50
(UTC+00:00)

Cosmos 1378 - Pass Details

Date: 18 September 2020
Orbit: 492 x 500 km, 82.5° (Epoch: 25 October)

Event Time Altitude Azimuth Distance (km) Brightness Sun altitude
Rises 18:21:36 0° 346° (NNW) 2,582 7.1 -5.9°
Reaches altitude 10° 18:23:46 10° 341° (NNW) 1,695 6.2 -6.3°
Maximum altitude 18:27:20 48° 266° (W) 648 4.3 -7.0°
Drops below altitude 10° 18:30:54 10° 191° (S) 1,683 5.8 -7.6°
Sets 18:33:02 0° 186° (S) 2,562 6.7 -8.0°
